{"data":{"norad_id":61872,"epoch":"2026-09-22T23:49:56.430336Z","epoch_age_seconds":86613,"freshness":"FRESH","line1":"1 61872U 24203D   26265.99301424  .00007937  00000+0  28841-3 0  9999","line2":"2 61872  97.4168 335.7112 0009782   2.5393 357.5895 15.28507613103858","mean_motion":15.28507613,"eccentricity":0.0009782,"inclination_deg":97.4168,"raan_deg":335.7112,"arg_perigee_deg":2.5393,"mean_anomaly_deg":357.5895,"bstar":0.00028841,"rev_number":10385,"period_min":94.209540584081,"perigee_km":473.56399726403,"apogee_km":486.9817903803,"semimajor_km":6858.4098938222,"source":"CELESTRAK","updated_at":"2026-09-23T09:00:21.085499Z"}}